CAPE
0 0 0 0 0 0 0 0 0 0 4 464 992 1327 701 756 618 524 0 0 0 0 1 82 79 68 97 153 171 245 255 183 142 94 68 34 16 9 15 31 41 97 120 124 79 42 18 10 0
0 0 0 0 0 0 0 2 0 948 1136 1201 1050 1193 1394 704 44 2 0 0 0 0 2 2 0 0 1 1 5 5 1 7 1 1 1 1 0 0 0 0 0 0 1 1 2 1 0 0 0
0 0 0 0 0 0 0 30 934 1061 957 701 825 806 1075 445 62 0 0 0 0 0 0 3 0 1 0 0 0 0 0 0 0 0 0 0 0 0 0 0 0 0 0 0 0 0 0 0 0
0 0 0 0 0 0 0 4 56 731 706 808 740 338 19 241 81 0 0 0 0 0 0 2 0 1 1 0 0 0 0 0 0 0 0 0 0 0 0 0 0 0 0 0 0 0 0 0 0
0 0 0 0 0 0 0 0 8 402 224 682 766 354 12 4 0 0 0 1 0 0 0 2 3 2 1 0 0 0 0 0 0 0 0 0 0 0 0 0 0 0 0 0 0 0 0 0 0
0 0 0 0 0 0 0 0 36 264 221 440 559 164 3 0 0 0 0 0 0 0 0 0 3 1 0 0 0 0 0 0 0 0 0 0 0 0 0 0 0 0 0 0 0 0 0 0 0
0 0 0 0 0 0 0 0 83 118 262 513 252 143 0 0 0 0 0 0 0 0 0 0 0 0 0 0 0 0 0 0 0 0 0 0 0 0 0 0 0 0 0 0 0 0 0 0 0
0 0 0 0 0 0 0 0 42 73 52 185 173 141 0 0 0 0 0 0 0 0 1 0 0 0 0 0 0 0 0 0 0 0 0 0 0 0 0 0 0 0 0 0 0 0 0 0 0
0 0 0 0 0 0 0 0 6 0 0 1 0 19 16 0 0 0 0 0 0 0 0 0 0 0 0 0 0 0 0 0 0 0 0 0 0 0 0 0 0 0 0 0 0 0 0 0 0
0 0 0 0 0 0 0 0 6 0 0 0 0 2 0 0 0 0 0 0 0 0 0 0 0 0 0 0 0 0 0 0 0 0 0 0 0 0 0 0 0 0 0 0 0 0 0 0 0
0 0 0 0 0 0 0 0 0 0 0 0 0 0 0 0 0 0 0 0 0 0 0 0 0 0 0 0 0 0 0 0 0 0 0 0 0 0 0 0 0 0 0 0 0 0 0 0 0
0 0 0 0 0 0 0 0 0 0 0 0 0 0 0 0 0 0 0 0 0 0 0 0 0 0 0 0 0 0 0 0 0 0 0 0 0 0 0 0 0 0 0 0 0 0 0 0 0
0 0 0 0 0 0 0 0 0 0 0 0 0 0 0 0 0 0 0 0 0 0 0 0 0 0 0 0 0 0 0 0 0 0 0 0 0 0 0 0 0 0 0 0 0 0 0 0 0
0 0 0 0 0 0 0 0 0 0 0 0 0 0 0 0 0 0 0 0 0 0 0 0 0 0 0 0 0 0 0 0 0 0 0 0 0 0 0 0 0 0 0 0 0 0 0 0 0
0 0 0 0 0 0 0 0 0 0 0 0 0 0 0 0 0 0 0 0 0 0 0 0 0 0 0 0 0 0 0 0 0 0 0 0 0 0 0 0 0 0 0 0 0 0 0 0 0
0 0 0 0 0 0 0 0 0 0 0 0 0 0 0 0 0 0 0 0 0 0 0 0 0 0 0 0 0 0 0 0 0 0 0 0 0 0 0 0 0 0 0 0 0 0 0 0 0
0 0 0 0 0 0 0 0 0 0 0 0 0 0 0 0 0 0 0 0 0 0 0 0 0 0 0 0 0 0 0 0 0 0 0 0 0 0 0 0 0 0 0 0 0 0 0 0 0
0 0 0 0 0 0 0 0 0 0 0 0 0 0 0 0 0 0 0 0 0 0 0 0 0 0 0 0 0 0 0 0 0 0 0 0 0 0 0 0 0 0 0 0 0 0 0 0 0
0 0 0 0 0 0 0 0 0 0 0 0 0 0 0 0 0 0 0 0 0 0 0 0 0 0 0 0 0 0 0 0 0 0 0 0 0 0 0 0 0 0 0 0 0 0 0 0 0
0 0 0 0 0 0 0 0 0 0 0 0 0 0 0 0 0 0 0 0 0 0 0 0 0 0 0 0 0 0 0 0 0 0 0 0 0 0 0 0 0 0 0 0 0 0 0 0 0
0 0 0 0 0 0 0 0 0 0 0 0 0 0 0 0 0 0 0 0 0 0 0 0 0 0 0 0 0 0 0 0 0 0 0 0 0 0 0 0 0 0 0 0 0 0 0 0 0
0 0 0 1 0 0 0 0 0 0 0 0 0 0 0 0 0 0 0 0 0 0 0 0 0 0 0 0 0 0 0 0 0 0 0 0 0 0 0 0 0 0 0 0 0 0 0 0 0
0 0 0 0 0 0 0 1 0 0 0 0 0 0 0 0 0 0 0 0 0 0 0 0 0 0 0 0 0 0 0 0 0 0 0 0 0 0 0 0 0 0 0 0 0 0 0 0 0
0 0 3 0 0 0 0 0 0 0 0 0 0 0 0 0 0 0 0 0 0 0 0 0 0 0 0 0 0 0 0 0 0 0 0 0 0 0 0 0 0 0 0 0 0 0 0 0 0
0 0 0 1 1 0 0 0 0 0 0 0 0 0 0 0 0 0 0 0 0 0 0 0 0 0 0 0 0 0 0 0 0 0 0 0 0 0 0 0 0 0 0 0 0 0 0 0 0
0 0 0 1 0 0 0 0 0 0 0 0 0 0 0 0 0 0 0 0 0 0 0 0 0 0 0 0 0 0 0 0 0 0 0 0 0 0 0 0 0 0 0 0 0 0 0 0 0
0 0 0 13 9 20 0 0 0 0 0 0 0 0 0 0 0 0 0 0 0 0 0 0 0 0 0 0 0 0 0 0 0 0 0 0 0 0 0 0 0 0 0 0 0 0 0 0 0
1 1 1 0 0 0 0 0 0 0 5 0 0 0 0 0 0 0 0 0 0 0 0 0 0 0 0 0 0 0 0 0 0 0 0 0 0 0 0 0 0 0 0 0 0 0 0 0 0
0 0 0 0 0 0 0 0 0 0 0 0 0 0 0 0 0 0 0 0 0 0 0 0 0 0 0 0 0 0 0 0 0 0 0 0 0 0 0 0 0 0 0 0 0 0 0 0 0
0 0 0 1 0 0 1 0 0 0 0 6 0 14 0 0 0 0 0 0 0 0 0 0 0 0 0 0 0 0 0 0 0 0 0 0 0 0 0 0 0 0 0 0 0 0 0 0 0
CIN
0 0 0 0 0 0 0 0 0 0 -28 -66 -53 -63 -190 -336 -304 -157 0 0 0 0 -63 -406 -422 -453 -442 -374 -327 -261 -234 -261 -274 -289 -281 -241 -246 -241 -216 -215 -177 -188 -176 -164 -191 -220 -248 -218 0
0 0 0 0 0 0 0 -6 0 -36 -40 -73 -48 -15 -59 -266 -648 0 0 0 0 0 0 0 0 0 0 0 -302 -272 0 -242 0 0 0 0 0 0 0 0 0 0 0 0 0 0 0 0 0
0 0 0 0 0 0 0 -5 -11 -48 -50 -58 -59 -110 -151 -304 -550 0 0 0 0 0 0 0 0 0 0 0 0 0 0 0 0 0 0 0 0 0 0 0 0 0 0 0 0 0 0 0 0
0 0 0 0 0 0 0 -8 -15 -24 -54 -32 -19 -139 -456 -309 -455 0 0 0 0 0 0 0 0 0 0 0 0 0 0 0 0 0 0 0 0 0 0 0 0 0 0 0 0 0 0 0 0
0 0 0 0 0 0 0 0 -50 -6 -26 -6 -3 -169 -134 -366 0 0 0 0 0 0 0 0 0 0 0 0 0 0 0 0 0 0 0 0 0 0 0 0 0 0 0 0 0 0 0 0 0
0 0 0 0 0 0 0 0 -61 -2 -5 -2 -20 -190 -266 0 0 0 0 0 0 0 0 0 0 0 0 0 0 0 0 0 0 0 0 0 0 0 0 0 0 0 0 0 0 0 0 0 0
0 0 0 0 0 0 0 0 -47 -7 -6 -2 -6 -99 0 0 0 0 0 0 0 0 0 0 0 0 0 0 0 0 0 0 0 0 0 0 0 0 0 0 0 0 0 0 0 0 0 0 0
0 0 0 0 0 0 0 0 -47 -3 -13 -5 -8 -60 -4 0 0 0 0 0 0 0 -1 0 0 0 0 0 0 0 0 0 0 0 0 0 0 0 0 0 0 0 0 0 0 0 0 0 0
0 0 0 0 0 0 0 0 -31 0 0 -15 0 -39 -285 0 0 0 0 0 0 0 0 0 0 0 0 0 0 0 0 0 0 0 0 0 0 0 0 0 0 0 0 0 0 0 0 0 0
0 0 0 0 0 0 0 0 -8 0 0 0 0 -47 0 0 0 0 0 0 0 0 0 0 0 0 0 0 0 0 0 0 0 0 0 0 0 0 0 0 0 0 0 0 0 0 0 0 0
0 0 0 0 0 0 0 0 0 0 0 0 0 0 0 0 0 0 0 0 0 0 0 0 0 0 0 0 0 0 0 0 0 0 0 0 0 0 0 0 0 0 0 0 0 0 0 0 0
0 0 0 0 0 0 0 0 0 0 0 0 0 0 0 0 0 0 0 0 0 0 0 0 0 0 0 0 0 0 0 0 0 0 0 0 0 0 0 0 0 0 0 0 0 0 0 0 0
0 0 0 0 0 0 0 0 0 0 0 0 0 0 0 0 0 0 0 0 0 0 0 0 0 0 0 0 0 0 0 0 0 0 0 0 0 0 0 0 0 0 0 0 0 0 0 0 0
0 0 0 0 0 0 0 0 0 0 0 0 0 0 0 0 0 0 0 0 0 0 0 0 0 0 0 0 0 0 0 0 0 0 0 0 0 0 0 0 0 0 0 0 0 0 0 0 0
0 0 0 0 0 0 0 0 0 0 0 0 0 0 0 0 0 0 0 0 0 0 0 0 0 0 0 0 0 0 0 0 0 0 0 0 0 0 0 0 0 0 0 0 0 0 0 0 0
0 0 0 0 0 0 0 0 0 0 0 0 0 0 0 0 0 0 0 0 0 0 0 0 0 0 0 0 0 0 0 0 0 0 0 0 0 0 0 0 0 0 0 0 0 0 0 0 0
0 0 0 0 0 0 0 0 0 0 0 0 0 0 0 0 0 0 0 0 0 0 0 0 0 0 0 0 0 0 0 0 0 0 0 0 0 0 0 0 0 0 0 0 0 0 0 0 0
0 0 0 0 0 0 0 0 0 0 0 0 0 0 0 0 0 0 0 0 0 0 0 0 0 0 0 0 0 0 0 0 0 0 0 0 0 0 0 0 0 0 0 0 0 0 0 0 0
0 0 0 0 0 0 0 0 0 0 0 0 0 0 0 0 0 0 0 0 0 0 0 0 0 0 0 0 0 0 0 0 0 0 0 0 0 0 0 0 0 0 0 0 0 0 0 0 0
0 0 0 0 0 0 0 0 0 0 0 0 0 0 0 0 0 0 0 0 0 0 0 0 0 0 0 0 0 0 0 0 0 0 0 0 0 0 0 0 0 0 0 0 0 0 0 0 0
0 0 0 0 0 0 0 0 0 0 0 0 0 0 0 0 0 0 0 0 0 0 0 0 0 0 0 0 0 0 0 0 0 0 0 0 0 0 0 0 0 0 0 0 0 0 0 0 0
0 0 0 -3 0 0 0 0 0 0 0 0 0 0 0 0 0 0 0 0 0 0 0 0 0 0 0 0 0 0 0 0 0 0 0 0 0 0 0 0 0 0 0 0 0 0 0 0 0
0 0 0 0 0 0 0 -2 0 0 0 0 0 0 0 0 0 0 0 0 0 0 0 0 0 0 0 0 0 0 0 0 0 0 0 0 0 0 0 0 0 0 0 0 0 0 0 0 0
0 0 -2 0 0 0 0 0 0 0 0 0 0 0 0 0 0 0 0 0 0 0 0 0 0 0 0 0 0 0 0 0 0 0 0 0 0 0 0 0 0 0 0 0 0 0 0 0 0
0 0 0 -4 -3 0 0 0 0 0 0 0 0 0 0 0 0 0 0 0 0 0 0 0 0 0 0 0 0 0 0 0 0 0 0 0 0 0 0 0 0 0 0 0 0 0 0 0 0
0 0 0 -1 0 0 0 0 0 0 0 0 0 0 0 0 0 0 0 0 0 0 0 0 0 0 0 0 0 0 0 0 0 0 0 0 0 0 0 0 0 0 0 0 0 0 0 0 0
0 0 0 -1 -2 -12 0 0 0 -1 0 0 0 0 0 0 0 0 0 0 0 0 0 0 0 0 0 0 0 0 0 0 0 0 0 0 0 0 0 0 0 0 0 0 0 0 0 0 0
-11 -2 -11 0 0 0 0 -1 0 0 -30 0 0 0 0 0 0 0 0 0 0 0 0 0 0 0 0 0 0 0 0 0 0 0 0 0 0 0 0 0 0 0 0 0 0 0 0 0 0
0 0 0 0 0 0 0 0 0 0 0 0 0 0 0 0 0 0 0 0 0 0 0 0 0 0 0 0 0 0 0 0 0 0 0 0 0 0 0 0 0 0 0 0 0 0 0 0 0
0 0 0 -3 -1 0 -5 0 0 0 0 -23 0 -60 0 0 0 0 0 0 0 0 0 0 0 0 0 0 0 0 0 0 0 0 0 0 0 0 0 0 0 0 0 0 0 0 0 0 0
Wind_Speed
24 13 10 10 9 7 6 6 12 14 17 15 20 19 13 18 15 13 6 8 7 6 7 6 6 6 8 9 11 12 14 14 14 14 15 16 17 18 19 20 21 21 22 23 24 25 26 26 26
19 13 8 16 6 9 7 19 17 17 13 14 16 17 19 14 12 7 7 7 8 7 6 6 6 7 8 9 10 12 13 13 13 14 15 16 17 18 20 20 22 23 24 25 26 27 27 28 28
15 14 12 6 4 6 4 24 15 15 14 14 15 18 16 13 7 5 7 8 8 8 7 6 6 7 8 9 10 12 13 13 13 14 16 17 18 20 21 22 23 24 25 26 27 28 29 29 29
13 11 11 8 7 12 20 24 16 16 17 13 10 14 13 14 10 7 10 9 9 8 7 7 7 8 9 10 11 12 12 13 14 15 16 18 19 20 22 23 24 26 27 29 29 30 30 30 30
5 12 7 7 7 13 15 20 20 14 12 11 8 12 11 11 11 12 12 11 9 8 8 7 8 8 9 9 10 11 12 13 14 16 17 18 20 21 23 25 26 28 29 30 31 32 32 32 33
7 3 7 9 6 10 12 15 16 12 7 7 11 10 11 8 8 9 9 8 8 8 7 7 7 8 9 10 10 11 12 14 15 16 18 19 20 22 23 26 27 29 30 31 31 33 33 34 34
4 6 5 8 8 33 20 12 14 10 5 7 8 11 6 5 7 8 7 7 8 9 9 7 7 8 9 9 10 11 13 14 15 17 17 18 19 21 23 26 28 29 30 30 31 32 33 33 33
3 5 7 7 8 8 26 9 8 10 9 9 7 9 2 5 5 6 7 7 8 8 9 9 8 7 8 9 10 11 13 14 16 17 18 18 20 21 23 27 28 28 30 31 31 33 34 34 34
3 5 6 5 5 36 8 8 8 12 9 9 11 15 5 6 5 4 5 6 7 7 7 7 7 7 8 8 9 11 12 15 16 18 21 20 21 24 24 25 27 28 30 31 32 33 34 34 34
4 5 6 10 31 29 17 11 7 9 8 9 10 6 6 7 5 2 3 3 4 4 5 6 6 6 6 8 8 10 12 16 18 20 21 22 22 24 26 25 24 30 30 31 33 33 32 33 33
6 8 13 36 32 26 28 14 14 5 7 7 4 2 4 5 4 3 2 2 2 3 4 4 5 5 6 8 8 11 13 14 17 21 22 22 23 25 26 27 28 29 31 31 33 33 33 34 34
10 14 12 19 24 22 19 28 9 10 9 16 7 7 4 4 4 3 2 2 2 2 3 4 4 6 7 7 10 11 12 14 17 19 22 23 23 26 27 28 29 30 32 33 33 33 35 34 34
15 18 20 17 19 18 21 27 28 14 17 13 4 6 4 5 4 3 2 0 1 2 2 3 4 5 6 8 10 11 12 15 16 19 22 23 24 26 27 28 30 31 33 33 34 34 35 34 34
19 25 24 24 23 18 15 22 20 24 14 11 5 5 5 6 6 4 4 2 0 1 2 3 4 5 6 8 9 10 12 13 16 19 21 23 25 27 28 29 31 32 33 34 34 35 35 35 35
19 21 21 18 19 20 16 12 10 22 18 14 12 8 7 7 7 6 4 3 1 0 1 2 3 5 6 7 8 10 11 13 16 17 21 23 25 27 28 29 30 32 32 33 34 34 34 34 35
23 21 25 19 17 14 14 13 16 17 16 13 12 11 8 7 7 6 4 3 2 1 2 0 2 3 4 6 8 10 11 13 15 17 20 23 25 27 28 29 30 32 31 32 33 34 35 36 35
23 28 27 23 14 16 14 15 13 27 19 12 12 10 10 9 8 8 6 5 4 3 3 2 1 3 5 6 8 10 11 13 16 18 21 23 26 28 28 28 30 31 31 31 33 34 35 37 38
29 27 24 23 17 16 16 16 16 20 18 10 15 14 13 11 10 9 7 6 5 3 2 3 3 3 4 5 6 8 11 13 15 19 21 23 26 27 28 29 30 31 31 31 33 34 36 36 39
32 37 39 34 25 26 18 21 21 21 16 15 16 16 14 14 11 9 8 6 6 4 5 6 6 5 4 6 7 8 11 13 16 17 21 23 26 28 29 29 29 30 30 31 34 35 36 36 38
37 38 34 32 31 31 32 29 25 24 23 18 17 16 15 13 12 11 9 8 8 8 7 6 7 6 6 6 9 10 11 14 15 17 20 23 26 28 28 29 29 30 30 31 33 34 33 32 35
36 37 38 37 37 35 35 35 31 24 28 29 21 20 18 16 14 13 11 10 8 9 9 7 7 6 7 7 8 11 12 12 14 16 20 24 26 27 27 28 28 30 29 30 31 31 32 33 32
35 29 37 35 35 38 30 41 33 30 27 24 25 21 19 16 13 12 11 11 10 9 8 8 6 6 7 5 6 7 12 13 16 18 20 22 24 25 27 27 27 28 27 28 29 30 30 30 32
33 29 32 37 40 40 34 33 53 30 35 32 29 19 20 17 15 13 11 10 9 9 9 8 7 8 7 9 8 9 12 13 14 17 19 20 22 24 26 26 26 27 27 27 28 29 29 29 28
35 38 35 33 36 39 36 31 39 36 39 35 31 14 14 14 13 11 10 9 9 9 9 9 8 8 8 8 8 9 10 11 14 16 18 20 22 22 25 24 25 26 26 27 27 27 28 28 28
28 29 34 38 37 44 37 34 34 27 27 21 9 5 7 10 12 12 11 11 10 10 9 8 8 7 7 7 7 9 11 13 14 15 18 20 21 22 23 24 24 25 25 25 26 27 27 27 27
24 26 31 38 40 41 36 37 37 28 18 15 13 10 10 10 11 13 12 11 10 10 9 8 9 7 6 5 7 9 11 13 15 17 17 20 20 21 21 22 22 24 25 25 25 25 26 26 26
25 28 30 41 42 44 41 37 30 24 18 14 16 16 13 10 11 12 10 10 10 10 9 8 8 6 5 5 7 9 11 12 14 16 17 18 18 18 20 21 22 23 25 25 24 25 26 25 25
23 27 30 30 34 37 38 37 35 30 25 21 22 20 20 12 11 10 11 10 10 9 8 7 7 7 6 6 7 7 8 11 12 14 17 17 17 18 19 20 21 22 24 24 23 24 25 25 25
29 33 38 37 34 42 40 30 22 21 25 21 19 21 19 15 14 12 12 10 10 9 8 8 8 8 8 7 4 4 7 10 12 14 15 16 16 17 17 19 19 21 22 23 22 22 23 24 24
35 34 36 42 41 38 42 48 37 41 38 29 27 25 23 19 16 13 11 10 9 9 9 9 9 10 8 5 2 4 6 8 11 13 14 14 15 16 16 17 18 19 20 21 21 21 23 23 24
Wind_Direction
322 346 3 352 350 342 305 268 290 326 322 341 335 338 343 328 323 314 24 357 17 35 42 19 15 10 8 10 15 16 17 8 1 5 3 1 360 359 359 358 355 353 351 348 343 340 338 337 334
331 336 342 329 328 327 322 291 331 337 358 353 344 335 329 330 344 22 21 32 52 50 38 21 14 11 12 17 19 15 16 11 5 5 4 3 360 358 356 354 351 348 345 343 340 336 334 332 329
339 336 337 341 258 259 274 329 335 346 351 347 342 342 340 337 8 27 71 67 41 50 33 31 20 20 17 20 17 16 21 15 6 6 5 3 359 354 350 349 348 347 343 339 336 332 331 330 328
350 353 337 330 298 225 267 307 339 342 335 344 4 339 353 356 353 39 85 80 61 45 34 30 22 23 24 21 15 14 12 9 4 3 2 0 358 355 351 346 345 343 340 337 333 330 329 327 325
6 347 317 288 274 224 310 313 325 338 338 340 352 351 351 8 47 77 85 80 65 47 39 22 18 18 19 21 13 9 4 2 3 1 359 357 354 350 348 344 342 340 337 334 332 329 326 324 322
353 333 321 322 295 228 324 337 325 330 346 8 354 358 351 38 59 69 68 51 38 45 35 29 25 24 23 22 15 8 5 1 359 358 356 354 352 349 347 344 343 340 338 336 334 330 328 325 324
347 339 270 255 278 263 319 330 331 333 353 354 353 338 19 56 62 66 52 39 34 49 51 38 33 29 24 17 12 9 7 6 1 357 357 357 357 354 351 346 342 341 339 338 336 333 331 329 329
293 307 277 261 304 284 308 359 354 336 332 5 3 341 349 107 81 63 58 44 39 22 47 59 59 43 22 13 16 11 6 2 360 357 352 352 352 350 350 344 344 343 340 339 337 335 332 331 327
296 271 248 291 262 303 338 340 338 334 349 330 328 329 84 111 93 65 48 40 43 39 32 36 46 43 42 34 20 17 11 1 354 350 346 348 348 344 343 347 346 344 341 339 338 336 333 331 329
280 258 250 216 314 302 342 338 319 315 310 311 326 20 95 112 120 97 60 46 41 39 34 27 28 33 50 17 24 10 2 352 349 346 348 346 349 346 344 348 351 343 344 341 339 339 340 337 334
288 257 310 258 308 309 298 337 309 311 283 272 272 159 138 135 139 128 93 65 56 49 40 32 13 21 18 11 15 5 359 4 2 353 349 351 352 350 348 348 346 345 344 343 341 339 338 335 333
292 303 302 309 317 319 314 293 305 295 289 312 185 159 169 180 175 169 156 120 77 53 30 27 26 11 4 16 4 2 4 5 360 358 351 350 351 346 345 345 343 343 341 340 339 338 335 334 332
310 309 310 309 316 317 310 291 288 293 297 311 147 154 188 198 198 198 185 167 31 13 44 44 30 16 6 8 3 4 3 357 0 356 353 349 349 346 346 345 343 342 341 341 339 338 336 335 334
316 308 308 304 308 307 308 299 296 288 295 294 262 229 233 215 211 212 200 197 182 39 28 28 27 26 23 12 13 5 5 4 1 358 355 352 350 345 344 344 343 342 341 341 340 338 337 335 333
313 305 305 304 303 300 303 284 244 289 287 287 282 274 250 232 220 222 228 248 224 5 80 44 24 19 13 13 9 2 0 360 358 0 356 354 351 348 346 346 345 344 343 342 341 340 339 337 335
305 301 301 305 295 286 285 255 294 291 271 272 275 276 262 247 229 225 226 227 228 235 272 330 20 24 23 8 1 360 359 360 360 0 360 357 355 352 349 349 347 345 344 344 343 341 339 337 336
299 293 295 300 293 297 247 268 284 302 282 244 265 267 270 261 244 243 243 252 258 248 277 283 348 4 354 355 354 358 360 359 360 358 357 356 353 351 350 350 347 346 345 346 344 342 339 336 333
295 293 292 296 310 292 274 271 287 291 306 264 277 270 265 258 248 244 247 250 249 239 240 278 300 327 345 348 355 356 355 356 358 355 355 353 353 351 350 348 347 347 346 346 344 342 339 337 334
292 292 291 294 303 312 281 286 291 294 271 265 267 272 257 256 254 248 244 247 254 247 268 272 284 297 315 319 325 332 337 345 350 356 354 353 352 350 349 347 348 347 346 345 343 341 338 338 338
288 289 291 297 294 292 291 289 288 289 287 263 263 264 251 244 242 240 233 244 257 257 263 267 281 284 298 314 330 335 341 345 348 350 352 352 350 348 348 347 346 345 344 344 344 345 343 344 346
283 286 291 292 294 290 290 287 289 287 287 284 261 261 250 235 235 237 238 246 253 259 267 271 277 275 305 324 331 336 345 344 342 346 347 350 350 349 349 348 347 344 346 346 347 349 347 343 346
278 284 292 290 292 289 290 288 285 292 286 269 262 252 242 234 232 235 235 241 251 262 265 272 274 283 306 309 317 324 325 331 338 342 346 350 352 351 349 348 348 349 351 351 351 350 349 349 345
273 285 289 291 293 293 287 289 257 298 295 293 288 261 238 231 220 231 237 239 242 256 258 266 271 285 292 304 312 321 330 337 341 344 348 350 353 353 352 351 352 352 355 355 353 352 353 351 351
287 285 285 287 289 283 269 288 290 297 296 293 300 253 234 225 222 223 231 235 250 254 261 265 270 287 293 308 315 325 332 337 339 342 347 348 349 353 352 354 355 357 356 356 356 355 354 354 353
286 284 282 284 277 280 292 287 276 306 316 316 304 265 240 232 229 230 233 244 249 245 250 257 259 275 285 295 314 327 332 334 339 344 344 346 346 348 352 354 356 358 358 358 357 357 357 357 357
275 277 276 282 283 287 286 278 292 304 314 321 319 280 266 250 240 237 234 247 241 237 242 248 249 259 265 282 311 326 333 335 341 344 346 346 348 353 355 356 359 359 359 359 0 2 360 360 360
280 274 284 283 282 285 283 289 295 294 307 301 306 305 286 257 251 242 231 233 238 237 236 236 233 238 241 271 303 319 331 341 346 346 350 351 354 359 356 357 358 1 0 1 6 5 359 359 1
281 290 288 290 292 285 284 287 290 303 312 311 305 303 300 286 269 255 245 241 249 232 226 226 212 224 243 265 296 324 341 345 348 351 350 352 354 356 356 356 358 1 3 6 8 7 3 2 0
288 284 283 290 285 283 290 291 304 319 318 318 301 297 297 288 276 272 257 245 249 226 217 215 219 230 247 264 297 339 345 351 350 353 354 355 354 356 356 358 2 2 5 8 10 11 6 5 1
286 287 285 281 283 282 284 282 293 298 299 300 304 303 297 291 278 268 258 251 240 216 212 214 238 236 243 255 300 337 347 354 354 354 354 355 356 356 356 3 6 6 8 12 12 12 7 358 359